Temperature
17 17 17 17 17 17 17 17 17 17 17 17 17 17 17 17 17 17 17 17 17 17 17 17 17 17 17 17 16 16 16 16 16 16 16 16 16 16 16 16 16 16 16
17 17 17 17 17 17 17 17 17 17 17 17 17 17 17 17 17 17 17 17 17 17 17 17 17 17 16 16 16 16 16 16 16 16 16 16 16 16 16 16 16 16 16
17 17 17 17 16 16 16 16 16 16 16 17 17 17 17 17 17 17 17 17 17 17 16 16 16 16 16 16 16 16 16 16 16 16 16 16 16 16 16 16 16 16 16
17 16 16 16 16 16 16 16 16 16 16 16 16 16 17 17 16 16 16 16 16 16 16 16 16 16 16 16 16 16 16 16 16 16 16 16 16 16 16 16 16 16 16
16 16 16 16 16 16 16 16 16 16 16 16 16 16 16 16 16 16 16 16 16 16 16 16 16 16 16 16 16 16 16 16 16 16 16 16 16 16 16 16 16 16 16
16 16 16 16 16 15 15 15 16 16 16 16 16 16 16 16 16 16 16 16 16 16 16 16 16 16 16 16 16 16 16 16 16 16 16 16 16 16 16 16 16 16 16
16 16 16 16 15 15 15 15 15 15 15 15 15 16 16 16 16 16 16 16 16 16 16 16 16 16 16 16 16 16 16 15 15 15 15 15 15 15 15 15 15 15 15
16 16 15 15 15 15 15 15 15 15 15 15 15 16 16 15 16 16 16 16 16 16 16 16 16 15 15 15 15 15 15 15 15 15 15 15 15 15 15 15 15 15 15
15 15 15 15 15 15 15 15 15 15 15 15 15 16 16 16 16 16 16 16 16 16 16 16 16 15 15 15 15 15 15 15 15 15 15 15 15 15 15 15 15 15 15
15 15 15 15 15 15 15 15 15 15 15 15 15 15 16 16 16 16 16 16 16 16 16 16 15 15 15 15 15 15 15 15 15 15 15 15 15 15 15 15 15 15 15
15 15 15 15 15 15 15 15 15 15 15 15 15 15 16 16 16 16 16 16 16 16 16 16 15 15 15 15 15 15 15 15 15 15 15 15 15 15 15 15 15 15 15
15 15 15 15 15 15 15 15 15 15 15 15 15 15 15 15 16 16 16 16 16 16 16 16 16 15 15 15 15 15 15 15 15 15 15 15 15 15 15 15 15 15 15
16 15 15 15 15 15 14 14 14 15 15 15 15 15 15 15 15 15 16 16 16 16 16 16 16 16 15 15 15 15 15 15 15 14 14 14 14 15 15 15 15 15 15
16 15 15 15 15 14 14 14 14 14 14 14 15 15 15 15 15 15 15 15 15 15 16 16 16 16 15 15 15 15 15 15 14 14 14 14 14 14 14 14 14 14 14
16 15 15 15 15 14 14 14 14 14 14 14 14 14 15 15 15 15 15 15 15 15 15 15 15 15 15 15 15 15 15 15 14 14 14 14 14 14 14 14 14 14 14
16 15 15 15 15 15 14 14 14 14 14 14 14 14 14 14 14 15 15 15 15 14 15 15 15 15 15 15 15 15 15 15 15 14 14 14 14 14 14 14 14 14 14
16 16 16 15 15 15 15 14 14 14 14 14 14 14 14 14 14 14 14 14 14 14 14 15 15 15 15 15 15 15 15 15 15 15 14 14 14 14 14 14 14 14 14
16 16 16 16 15 15 15 15 15 14 14 14 14 14 14 14 14 14 14 14 14 14 14 15 15 15 15 15 15 15 15 15 15 15 15 15 14 14 14 14 14 14 14
16 16 16 16 16 16 15 15 15 15 15 14 14 14 14 14 14 14 14 14 14 14 14 14 15 15 15 15 15 15 15 15 15 15 15 15 15 14 14 14 14 14 14
16 16 16 16 16 16 15 15 15 15 15 15 14 14 14 14 14 14 14 14 14 14 14 14 14 14 15 15 15 15 15 15 15 15 15 15 15 15 15 14 14 14 14
16 16 16 16 16 15 15 15 15 15 15 15 14 14 14 14 14 14 14 14 14 14 14 13 14 14 14 14 14 14 14 14 14 15 15 15 15 14 14 14 14 14 14
16 16 16 15 15 15 15 15 15 15 15 14 14 14 14 14 14 14 14 14 14 13 13 13 13 13 13 13 13 13 12 12 13 14 14 14 14 14 14 14 14 14 14
16 16 15 15 15 15 15 15 14 14 14 14 14 13 13 13 13 13 13 13 13 12 12 12 12 12 12 12 12 12 12 12 12 12 12 12 13 13 14 14 14 14 14
15 15 15 14 14 14 14 14 14 13 13 13 13 12 12 12 12 12 12 12 12 12 11 11 11 11 11 11 11 10 10 11 11 11 11 11 12 12 13 13 13 13 13
14 14 14 13 13 13 13 13 12 12 12 12 11 11 11 11 11 11 11 11 11 11 10 10 10 10 10 10 10 10 10 10 10 10 11 10 11 11 11 12 12 13 13
13 13 13 12 12 12 12 11 11 11 11 11 11 10 10 10 10 10 10 10 10 10 10 10 9 9 9 9 9 9 9 8 8 8 9 9 9 9 9 10 11 11 11
Wind_Speed
3 2 2 2 2 2 2 1 1 2 2 2 1 3 3 3 4 4 4 7 9 9 9 9 9 9 9 10 10 10 10 10 10 10 10 10 9 9 9 9 8 8 7
5 3 2 2 1 2 2 2 2 2 2 2 1 1 2 2 3 3 2 3 5 7 8 9 10 10 10 10 10 11 10 10 10 10 10 10 10 9 9 9 8 8 7
7 5 3 2 1 2 3 3 3 3 2 2 1 1 1 1 2 2 2 2 2 5 7 8 9 9 10 11 11 11 11 11 11 11 11 11 11 10 9 9 9 9 8
8 6 3 2 2 4 4 3 3 2 2 2 1 1 1 1 1 1 1 2 2 2 5 7 9 10 10 10 11 11 11 11 12 12 12 12 12 11 11 10 10 10 10
8 7 4 3 4 4 3 2 2 2 2 2 1 2 2 1 1 0 1 1 2 3 4 5 8 9 10 10 11 11 12 13 13 13 13 13 13 13 13 12 12 11 11
8 7 5 4 5 4 3 3 3 3 2 2 3 3 3 2 2 2 1 1 2 3 4 5 5 7 9 10 11 11 12 13 14 14 14 14 14 15 15 14 14 13 13
8 7 5 4 4 3 3 3 3 3 3 1 3 3 3 3 2 2 2 1 1 1 3 4 4 5 6 8 10 11 12 12 13 14 15 15 15 16 16 16 16 15 15
8 7 6 4 4 4 4 3 3 3 2 2 2 3 2 3 3 2 2 1 1 1 1 2 3 4 5 4 6 9 11 12 12 13 14 15 16 17 16 17 17 17 17
7 7 7 6 4 4 4 3 3 4 3 2 2 3 3 3 1 2 2 1 1 1 1 1 2 3 4 4 4 5 7 9 11 12 13 14 15 16 16 17 17 17 18
6 7 8 7 5 4 4 3 2 3 4 2 2 2 2 2 2 0 2 2 2 1 1 1 1 2 3 4 4 5 6 7 8 9 11 12 13 14 15 16 16 17 18
3 5 7 6 5 4 4 3 3 3 2 3 2 2 2 2 1 2 1 2 2 2 2 2 2 2 3 4 4 5 5 5 6 6 8 9 10 12 14 15 15 16 16
2 3 5 5 5 4 4 4 3 3 3 3 2 2 2 2 2 2 1 1 1 2 2 2 2 3 3 4 5 5 5 5 5 5 6 6 7 8 10 12 13 14 15
3 4 4 4 4 4 5 4 4 3 3 3 3 2 2 2 2 2 2 1 1 2 3 2 2 3 4 5 6 6 7 7 7 7 7 7 7 7 8 9 10 11 12
5 5 5 5 5 6 5 4 3 3 3 3 3 2 2 1 2 2 3 3 1 1 2 3 2 3 4 4 7 7 7 10 10 10 10 10 9 9 9 9 10 11 11
4 6 6 6 6 6 6 5 3 3 4 3 3 3 2 1 2 2 2 2 3 1 2 2 2 2 3 5 7 7 8 11 12 13 13 13 13 13 12 12 12 13 13
5 6 6 7 6 6 6 5 4 4 4 3 3 3 3 2 2 2 2 2 2 3 3 2 3 3 4 5 6 7 9 12 13 15 16 17 17 17 17 16 16 16 16
6 7 7 7 7 7 7 6 6 5 5 4 4 4 5 4 3 3 3 3 3 3 4 4 3 3 3 5 6 7 8 10 11 16 18 19 20 20 20 20 20 19 19
6 7 7 7 8 8 8 8 8 7 7 7 6 6 6 4 5 4 4 4 4 5 5 6 4 3 5 5 5 6 7 9 10 15 18 20 22 23 23 23 23 22 22
5 6 6 8 8 8 8 9 8 8 8 8 7 7 7 6 6 5 5 5 5 5 5 5 6 4 4 4 4 5 6 7 10 12 15 18 21 23 25 25 25 25 24
5 5 5 6 7 7 7 7 7 7 7 7 6 6 6 6 7 6 5 6 5 5 5 6 6 6 5 4 4 5 7 6 7 9 12 14 17 21 23 24 25 26 25
4 3 3 3 3 4 5 6 6 6 6 5 4 4 3 3 4 4 4 4 4 4 4 5 6 6 6 5 5 4 8 9 9 7 8 9 10 11 14 17 21 24 25
2 2 2 2 2 1 2 5 5 4 3 3 2 1 1 2 2 2 1 1 2 3 4 5 6 7 9 7 6 6 8 9 8 4 4 8 7 10 11 14 18 22 24
3 3 3 3 4 3 4 4 4 4 3 3 3 3 3 4 5 3 3 3 3 2 2 4 6 7 7 6 7 9 8 9 11 9 9 13 12 13 12 16 21 24 25
5 5 5 6 6 6 8 8 8 7 6 6 5 4 4 4 5 5 4 4 4 4 4 3 4 6 7 8 7 8 10 10 11 10 8 11 13 14 13 15 20 23 26
7 6 6 7 8 8 10 10 8 6 6 5 5 5 4 3 5 5 4 4 5 5 5 7 9 10 12 13 10 7 7 8 10 10 7 8 11 13 13 13 16 21 25
7 7 8 8 8 8 9 10 8 5 5 4 4 4 5 5 5 5 3 3 5 6 7 8 7 9 9 10 10 6 7 8 8 7 5 5 9 9 9 8 9 12 15
Wind_Direction
152 147 142 142 145 141 142 149 137 120 107 101 142 161 166 161 155 159 171 183 185 183 182 180 181 185 182 179 178 177 176 174 171 170 168 167 167 168 166 161 159 159 158
149 141 134 134 140 147 151 149 136 119 106 112 101 139 153 156 156 158 168 192 196 196 196 194 193 197 195 193 190 187 186 184 181 181 181 180 179 179 177 173 172 172 172
150 145 136 136 149 136 128 115 96 92 98 97 75 58 88 125 147 171 193 207 210 213 211 207 208 208 207 205 202 197 194 194 192 192 192 191 190 190 189 187 186 185 185
150 142 136 140 139 128 122 109 96 90 82 87 83 39 42 48 136 195 204 218 216 221 221 218 222 221 219 216 211 205 202 203 203 202 202 201 200 200 201 200 199 197 197
147 139 130 129 126 112 105 117 87 100 99 88 96 59 32 22 16 353 225 228 230 227 228 231 233 232 230 227 223 216 212 210 211 210 211 210 210 210 210 210 209 208 208
140 130 120 117 119 107 97 96 97 79 85 91 85 64 36 18 30 21 350 304 238 233 229 234 239 244 238 233 229 225 224 221 218 217 217 217 216 217 218 218 217 217 217
138 129 122 113 113 114 121 119 103 88 65 61 84 49 22 25 32 19 9 0 325 265 222 221 225 236 242 237 233 230 229 230 226 224 225 224 223 223 223 224 225 223 223
141 137 132 127 122 115 109 110 117 108 69 49 112 96 38 4 5 14 8 4 343 332 250 229 221 226 234 239 241 240 236 233 232 231 232 232 230 229 227 228 229 229 228
141 138 138 133 131 127 128 124 132 133 130 64 64 134 141 206 301 340 8 18 353 345 329 298 243 233 232 234 245 249 243 238 235 233 233 234 234 233 230 229 230 231 232
138 142 140 137 132 128 131 136 132 134 137 134 85 61 104 143 147 349 340 356 351 341 321 310 299 259 236 234 246 255 253 245 240 238 237 235 236 236 234 234 234 235 234
133 144 143 138 136 135 137 128 121 124 129 141 144 130 101 75 88 141 229 329 345 329 306 290 280 271 249 238 244 250 249 240 237 236 238 241 241 241 239 239 240 240 239
139 152 148 146 145 144 145 140 129 129 123 123 128 136 146 148 158 149 169 242 298 309 315 295 267 260 254 244 248 247 240 231 221 223 234 242 246 247 245 244 244 245 244
181 187 168 162 160 162 157 147 138 138 135 131 137 135 142 147 145 145 142 150 285 313 319 306 285 270 258 250 255 253 247 241 233 229 232 239 245 251 253 253 252 252 251
191 182 178 180 177 170 165 156 148 157 148 145 149 144 140 150 162 163 155 146 111 329 316 297 312 286 276 265 262 259 255 250 246 243 242 243 246 251 256 259 260 260 258
190 182 183 184 185 181 174 164 172 177 165 172 172 171 169 180 176 174 164 159 152 188 270 285 293 298 290 279 274 260 255 258 255 253 253 253 253 255 257 259 262 263 263
192 183 191 194 191 189 183 177 184 188 181 187 186 185 195 197 191 182 177 177 173 176 225 258 259 279 289 289 279 259 259 263 261 259 258 257 257 257 257 258 259 260 261
195 198 199 197 198 197 191 190 201 195 198 205 202 204 216 202 201 199 190 188 192 186 223 263 250 265 271 276 286 276 269 264 264 263 261 260 259 259 258 258 257 258 258
203 204 199 201 205 204 197 199 207 205 207 215 218 217 228 218 219 215 208 213 214 210 222 260 268 261 254 262 271 276 273 267 262 266 265 263 261 260 259 259 258 257 257
208 206 199 205 209 206 203 208 210 211 214 220 221 223 233 226 236 234 228 233 235 229 224 247 271 265 267 266 276 279 275 271 270 267 266 264 262 260 259 259 258 258 257
203 210 210 215 215 212 211 212 214 219 223 227 226 227 234 231 240 243 241 243 243 243 238 248 268 275 274 271 264 283 292 285 281 280 270 266 263 261 259 258 257 257 256
203 204 205 222 220 214 219 212 212 217 220 227 227 225 234 237 243 241 246 252 246 250 256 263 274 283 286 287 283 283 289 295 289 272 273 270 265 264 264 262 259 257 255
162 150 176 189 195 221 210 194 187 191 188 196 201 169 107 43 20 14 332 287 244 247 261 266 273 279 286 290 292 290 292 294 293 276 272 282 273 271 268 264 259 256 255
112 113 116 107 92 62 75 103 128 118 108 100 95 87 75 53 43 25 13 18 13 356 291 264 275 284 294 300 303 298 289 282 279 283 285 285 279 274 272 267 259 255 255
95 94 89 91 87 69 75 87 95 93 83 75 76 83 81 52 32 24 15 12 1 346 322 303 277 283 289 293 287 283 284 283 278 275 268 278 282 278 278 272 263 257 256
88 84 83 83 82 67 69 80 89 91 86 73 64 65 72 59 28 24 22 358 341 334 333 331 316 304 301 300 299 295 289 288 289 287 269 266 280 284 282 276 268 258 255
88 86 79 73 75 67 59 68 78 86 82 70 53 43 42 32 18 19 14 347 329 324 329 330 326 321 315 310 308 291 284 286 289 291 278 272 288 298 290 277 272 274 271
Height
1556 1557 1558 1559 1560 1561 1562 1563 1564 1565 1566 1567 1568 1570 1571 1572 1573 1574 1575 1576 1577 1578 1580 1581 1582 1584 1585 1586 1588 1589 1590 1592 1593 1594 1595 1596 1597 1598 1599 1600 1601 1601 1602
1555 1556 1557 1558 1559 1561 1562 1563 1564 1565 1566 1567 1568 1570 1571 1572 1573 1574 1575 1576 1577 1578 1580 1581 1582 1584 1585 1586 1588 1589 1590 1592 1593 1594 1595 1596 1597 1598 1599 1600 1601 1602 1602
1554 1556 1557 1558 1559 1560 1561 1562 1563 1564 1565 1566 1568 1569 1570 1571 1573 1574 1575 1576 1577 1578 1580 1581 1582 1584 1585 1586 1587 1589 1590 1591 1593 1594 1595 1596 1597 1598 1599 1600 1601 1601 1602
1554 1555 1556 1557 1558 1559 1560 1561 1562 1563 1565 1566 1567 1568 1569 1571 1572 1573 1574 1575 1576 1578 1579 1580 1581 1583 1584 1585 1587 1588 1589 1591 1592 1593 1594 1595 1596 1597 1598 1599 1600 1601 1602
1553 1554 1555 1556 1557 1559 1560 1561 1562 1563 1564 1565 1567 1568 1569 1570 1571 1572 1573 1575 1576 1577 1578 1579 1581 1582 1583 1584 1586 1587 1588 1589 1591 1592 1593 1594 1595 1596 1598 1598 1599 1600 1601
1552 1553 1554 1555 1557 1558 1559 1561 1562 1563 1564 1565 1566 1567 1568 1570 1571 1571 1573 1574 1575 1576 1577 1578 1579 1581 1582 1583 1584 1585 1586 1587 1589 1590 1591 1593 1594 1595 1596 1597 1598 1599 1600
1552 1553 1554 1555 1556 1558 1559 1560 1561 1563 1564 1565 1566 1567 1568 1569 1570 1571 1572 1573 1574 1575 1576 1577 1578 1579 1580 1581 1582 1583 1584 1585 1586 1587 1589 1590 1591 1593 1594 1595 1596 1597 1598
1551 1552 1553 1554 1555 1557 1558 1559 1561 1562 1563 1564 1566 1567 1568 1570 1570 1571 1571 1572 1573 1574 1575 1576 1577 1578 1579 1579 1580 1581 1582 1582 1583 1584 1586 1587 1589 1590 1591 1592 1593 1594 1595
1550 1552 1553 1554 1555 1556 1558 1559 1560 1561 1562 1564 1565 1567 1568 1568 1569 1570 1571 1571 1572 1573 1574 1575 1576 1576 1577 1578 1579 1579 1580 1580 1581 1581 1583 1584 1585 1587 1588 1589 1590 1591 1592
1549 1551 1552 1553 1554 1556 1557 1558 1559 1561 1562 1563 1564 1566 1567 1567 1569 1569 1571 1571 1571 1572 1573 1574 1575 1575 1576 1577 1577 1577 1578 1578 1578 1579 1580 1581 1582 1583 1584 1585 1586 1587 1588
1549 1550 1552 1553 1554 1555 1556 1558 1559 1560 1561 1563 1564 1565 1566 1567 1568 1569 1569 1570 1571 1572 1572 1573 1574 1574 1575 1575 1575 1576 1576 1576 1576 1577 1577 1578 1579 1579 1580 1581 1582 1583 1584
1548 1550 1551 1552 1553 1555 1556 1557 1558 1559 1561 1562 1563 1564 1565 1566 1567 1567 1568 1569 1569 1570 1571 1572 1572 1573 1573 1574 1574 1574 1574 1574 1574 1575 1575 1575 1576 1576 1577 1577 1578 1579 1579
1548 1549 1551 1552 1553 1554 1555 1556 1557 1558 1559 1561 1562 1563 1564 1565 1566 1566 1567 1567 1568 1569 1569 1570 1571 1571 1572 1572 1572 1572 1573 1573 1573 1573 1573 1573 1573 1573 1573 1573 1574 1574 1575
1547 1549 1550 1551 1552 1553 1554 1555 1556 1557 1558 1559 1560 1562 1563 1563 1564 1565 1565 1566 1566 1567 1567 1568 1568 1569 1569 1570 1570 1570 1570 1571 1571 1571 1571 1570 1570 1570 1570 1569 1570 1570 1570
1547 1548 1549 1550 1551 1552 1553 1554 1555 1556 1557 1558 1559 1560 1561 1562 1562 1563 1564 1564 1565 1565 1565 1565 1566 1566 1567 1567 1567 1567 1567 1568 1568 1568 1567 1567 1567 1566 1566 1565 1565 1565 1565
1545 1547 1548 1549 1550 1551 1552 1553 1554 1555 1556 1556 1557 1558 1559 1560 1561 1561 1562 1562 1562 1563 1562 1562 1563 1564 1564 1564 1564 1564 1564 1564 1564 1564 1563 1563 1563 1562 1561 1561 1560 1560 1560
1544 1545 1547 1548 1549 1550 1551 1552 1552 1553 1554 1555 1555 1556 1557 1558 1558 1559 1559 1560 1560 1560 1559 1559 1560 1560 1560 1560 1560 1560 1560 1559 1559 1559 1559 1558 1558 1557 1557 1556 1555 1555 1554
1542 1543 1545 1546 1547 1548 1549 1549 1550 1551 1552 1553 1553 1554 1555 1556 1556 1557 1557 1557 1557 1557 1556 1555 1555 1556 1556 1556 1555 1555 1555 1554 1554 1553 1553 1553 1552 1552 1551 1550 1550 1549 1549
1539 1541 1542 1544 1544 1545 1546 1547 1548 1548 1549 1550 1551 1552 1552 1553 1553 1554 1554 1554 1554 1553 1553 1552 1551 1551 1551 1551 1550 1549 1549 1548 1548 1547 1546 1546 1545 1545 1545 1544 1544 1543 1543
1536 1538 1539 1541 1541 1542 1543 1544 1544 1545 1546 1547 1547 1548 1549 1549 1549 1550 1550 1549 1549 1549 1549 1547 1546 1546 1545 1545 1544 1543 1542 1542 1541 1540 1539 1539 1538 1538 1537 1537 1536 1536 1536
1533 1534 1535 1537 1538 1538 1539 1540 1540 1541 1542 1543 1543 1544 1544 1545 1545 1545 1545 1545 1544 1544 1543 1542 1541 1540 1539 1538 1538 1536 1534 1533 1532 1532 1531 1531 1530 1529 1529 1528 1528 1528 1527
1529 1530 1531 1532 1533 1534 1534 1535 1536 1536 1537 1538 1539 1539 1539 1540 1540 1540 1539 1539 1539 1538 1537 1537 1535 1534 1533 1532 1531 1529 1527 1525 1523 1523 1522 1521 1521 1519 1519 1519 1519 1519 1518
1525 1526 1527 1528 1529 1529 1530 1531 1531 1532 1533 1533 1534 1534 1534 1535 1535 1535 1534 1534 1533 1532 1532 1531 1529 1528 1527 1525 1523 1521 1520 1518 1515 1515 1513 1509 1510 1508 1509 1508 1508 1508 1508
1522 1523 1524 1524 1525 1526 1527 1527 1528 1528 1529 1529 1530 1530 1530 1530 1530 1529 1529 1528 1528 1527 1525 1524 1523 1521 1520 1518 1516 1514 1511 1508 1506 1506 1505 1500 1499 1498 1497 1496 1496 1496 1496
1519 1520 1521 1522 1523 1523 1524 1525 1525 1526 1526 1526 1526 1526 1526 1525 1524 1524 1523 1522 1522 1521 1519 1518 1516 1515 1513 1512 1509 1506 1504 1501 1496 1495 1496 1492 1489 1487 1484 1483 1484 1484 1484
1518 1519 1519 1521 1521 1522 1522 1523 1523 1524 1523 1524 1524 1523 1522 1521 1520 1519 1518 1516 1515 1513 1512 1510 1509 1507 1505 1504 1502 1499 1496 1493 1489 1486 1486 1485 1481 1478 1472 1471 1473 1473 1472